[[{"header":{"parameterUnit":"m.s-1","parameterCategory":2,"la1":30.2991,"la2":30.254,"lo1":-89.0895,"lo2":-89.0444,"dy":0.0017,"dx":0.0017,"nx":28,"ny":28,"refTime":"2024-04-03T03:00:00:Z","depth":"0","parameterNumber":2,"parameterNumberName":"U-component_of_CURRENTS"},"data":[0,0,0,0,0,0,0,0,0,0,0,0,0,0,0,0,0,0,0,0,0,0,0,0,0,0,0,0,0,0,0,0,0,0,0,0,0,0,0,0,0,0,0,0,0,0,0,0,0,0,0,0,0,0,0,0,0,0,0.2986,0.2986,0,0.2987,0.2987,0.2987,0.2962,0.2962,0.2961,0.2961,0.292,0.2919,0.2919,0,0,0,0,0,0,0,0,0,0,0,0,0,0.2984,0.2984,0.2986,0.2986,0.2986,0.2987,0.2987,0.2987,0.2962,0.2962,0.2961,0.2961,0.292,0.292,0.2919,0,0,0,0,0,0,0,0,0,0,0,0,0,0.2983,0.2984,0.2986,0.2976,0.2975,0.2987,0.2987,0.2987,0.2962,0.2962,0.2961,0.296,0.2921,0.292,0.2919,0.2926,0,0,0.2916,0.2915,0,0,0,0,0,0,0,0,0.2983,0.2983,0.2977,0.2977,0.2976,0.2976,0.2971,0.2965,0.2963,0.2965,0.2961,0.296,0.2937,0.2934,0.2934,0.2924,0.2923,0.2916,0.2915,0.2914,0.2914,0,0,0,0,0,0,0,0.2983,0.2983,0.2984,0.2978,0.2977,0.2979,0.2977,0.297,0.2952,0.2965,0.2963,0.2967,0.2936,0.2935,0.2932,0.2922,0.2916,0.2915,0.2914,0.2914,0.2931,0.2932,0,0,0,0,0,0,0.2987,0.2983,0.2984,0.2984,0.298,0.2979,0.2978,0.2975,0.2953,0.295,0.2968,0.2966,0.2937,0.2934,0.2931,0.2948,0.2915,0.2914,0.2913,0.293,0.2932,0.2933,0,0,0,0,0,0,0.2987,0.2987,0.2984,0.2986,0.2986,0.298,0.2977,0.2975,0.2978,0.2956,0.2952,0.2973,0.2936,0.2932,0.2932,0.2946,0.2913,0.2912,0.2929,0.2931,0.2932,0.2977,0,0,0,0,0,0,0.2986,0.2986,0.2988,0.2986,0.2986,0.2996,0.2978,0.2976,0.2982,0.298,0.2959,0.2955,0.2935,0.2933,0.2931,0.2944,0.2911,0.2928,0.293,0.2932,0.2974,0.298,0.2985,0,0,0,0,0,0.2986,0.299,0.2988,0.2989,0.2987,0.2997,0.2997,0.2989,0.2983,0.2988,0.2976,0.2955,0.2944,0.2933,0.293,0.2943,0.2927,0.2929,0.2931,0.2972,0.2979,0.2985,0,0,0,0,0,0,0.2989,0.2988,0.2986,0.2988,0.2996,0.2993,0.3,0.2997,0.2993,0.299,0.2967,0.2962,0.297,0.2953,0.2942,0.2956,0.2933,0.2935,0.2965,0.2971,0.2977,0.3011,0.2911,0,0,0,0,0,0.2992,0.2993,0.2997,0.3001,0.3006,0.3006,0.301,0.3007,0.3004,0.3001,0.2985,0.2975,0.2979,0.2971,0.2968,0.2971,0.2981,0.298,0.2985,0.2989,0.3016,0.3034,0.3044,0.2941,0.2941,0.294,0,0,0.2994,0.2995,0.2995,0.3002,0.3006,0.302,0.3006,0.3017,0.3032,0.2998,0.3006,0.2995,0.2987,0.2994,0.2995,0.2978,0.3025,0.2992,0.2996,0.3021,0.3038,0.3048,0.3057,0.2942,0.2942,0.2942,0,0,0.3002,0.3001,0.3008,0.3019,0.3031,0.3034,0.3041,0.3042,0.3047,0.3052,0.3042,0.3048,0.3029,0.3038,0.3039,0.3075,0.3058,0.3062,0.3108,0.3124,0.3133,0.3141,0.3171,0.3182,0.3057,0.3057,0.3057,0,0.3008,0.301,0.3013,0.3028,0.3038,0.3043,0.3058,0.3073,0.3072,0.308,0.3059,0.3067,0.3059,0.3091,0.3107,0.3089,0.3096,0.308,0.3132,0.314,0.3147,0.3176,0.3187,0.3059,0.3059,0.3059,0.3058,0,0.302,0.3028,0.3036,0.3054,0.3069,0.3082,0.3104,0.3117,0.3115,0.3121,0.3144,0.3138,0.3142,0.3141,0.3137,0.3187,0.3175,0.3141,0.3116,0.316,0.3188,0.3199,0.3063,0.3062,0.3061,0.306,0,0,0.3017,0.3038,0.3042,0.3049,0.3081,0.309,0.313,0.3158,0.3186,0.3183,0.3215,0.3232,0.3226,0.3231,0.3224,0.3248,0.331,0.3222,0.3221,0.3254,0.3358,0.3357,0.3368,0.3273,0.3275,0.3277,0.3358,0,0.3024,0.3045,0.3059,0.3083,0.3096,0.312,0.3159,0.3189,0.321,0.3243,0.3257,0.3286,0.3261,0.3272,0.3291,0.3315,0.3339,0.3293,0.3309,0.3311,0.3305,0.338,0.3375,0.3448,0.3368,0.337,0.3371,0,0.303,0.3043,0.3063,0.3092,0.3102,0.3121,0.3173,0.3209,0.3272,0.3293,0.3322,0.3338,0.3398,0.3359,0.342,0.3386,0.3387,0.3394,0.3396,0.3393,0.333,0.3389,0.3469,0.3482,0.3387,0.3385,0.3384,0,0.3013,0.3043,0.3052,0.3064,0.3107,0.3122,0.3147,0.3212,0.3264,0.3333,0.3379,0.3419,0.3467,0.3471,0.3498,0.346,0.3561,0.3496,0.3496,0.3496,0.3499,0.3495,0.3598,0.3538,0.3537,0.3537,0.3537,0,0.301,0.3016,0.3041,0.3045,0.3075,0.3107,0.316,0.3199,0.3285,0.335,0.3401,0.3472,0.3499,0.3554,0.3539,0.3574,0.3588,0.3544,0.3528,0.3514,0.3511,0.3525,0.3516,0.354,0.354,0.3539,0.3539,0,0.2988,0.3003,0.3016,0.305,0.3066,0.3085,0.3168,0.3203,0.33,0.3393,0.3426,0.3542,0.3621,0.3647,0.3687,0.3648,0.3602,0.3659,0.3655,0.3638,0.3623,0.3616,0.3455,0.3354,0.3675,0.3676,0.3676,0,0.2975,0.2979,0.3013,0.3018,0.3029,0.3073,0.3102,0.3196,0.3249,0.3429,0.3466,0.3604,0.3687,0.3774,0.3759,0.3762,0.3641,0.3729,0.3652,0.3665,0.3645,0.3404,0.3311,0.3676,0.3677,0.3677,0.3678,0,0.295,0.2961,0.2966,0.2988,0.3002,0.3039,0.3089,0.3147,0.3265,0.3376,0.351,0.3606,0.374,0.3778,0.3812,0.3793,0.3623,0.3735,0.3752,0.3681,0.3422,0.3303,0.3587,0.3681,0.3681,0.3681,0.368,0.368,0.2922,0.2921,0.2927,0.2941,0.2955,0.2972,0.2983,0.307,0.3173,0.3315,0.3461,0.3605,0.3787,0.3857,0.3794,0.3794,0.3635,0.3748,0.3748,0.3506,0.3378,0.3682,0.3745,0.3745,0.3745,0.3745,0.3745,0,0.2877,0.2873,0.2878,0.2874,0.2853,0.2894,0.2941,0.295,0.3031,0.3242,0.3373,0.3637,0.3752,0.3838,0.3945,0.3873,0.3592,0.3799,0.3512,0.3425,0.3752,0.3731,0.379,0.379,0.379,0.379,0.379,0.379,0.2847,0.2821,0.282,0.2767,0.276,0.2713,0.272,0.2769,0.2898,0.3097,0.3277,0.3435,0.3783,0.4033,0.4078,0.3973,0.371,0.3549,0.3449,0.3814,0.3809,0.3804,0.3784,0.3853,0.3853,0.2987,0.2982,0.2978]},{"header":{"parameterUnit":"m.s-1","parameterCategory":2,"la1":30.2991,"la2":30.254,"lo1":-89.0895,"lo2":-89.0444,"dy":0.0017,"dx":0.0017,"nx":28,"ny":28,"refTime":"2024-04-03T03:00:00:Z","depth":"0","parameterNumber":3,"parameterNumberName":"V-component_of_CURRENTS"},"data":[0,0,0,0,0,0,0,0,0,0,0,0,0,0,0,0,0,0,0,0,0,0,0,0,0,0,0,0,0,0,0,0,0,0,0,0,0,0,0,0,0,0,0,0,0,0,0,0,0,0,0,0,0,0,0,0,0,0,0.0205,0.0205,0,0.0176,0.0176,0.0175,0.0149,0.0149,0.0149,0.0148,0.0109,0.0109,0.0108,0,0,0,0,0,0,0,0,0,0,0,0,0,0.0177,0.0178,0.0205,0.0205,0.0205,0.0176,0.0176,0.0175,0.0149,0.0149,0.0149,0.0148,0.011,0.0109,0.0108,0,0,0,0,0,0,0,0,0,0,0,0,0,0.0173,0.0179,0.0205,0.0189,0.0187,0.0176,0.0176,0.0175,0.0149,0.0149,0.0149,0.0148,0.011,0.0109,0.0108,0.0108,0,0,0.0104,0.0103,0,0,0,0,0,0,0,0,0.0173,0.0174,0.0191,0.019,0.0188,0.0166,0.0151,0.0152,0.0149,0.0163,0.0148,0.0148,0.0128,0.0125,0.012,0.0106,0.0104,0.0104,0.0103,0.0102,0.0102,0,0,0,0,0,0,0,0.0174,0.0174,0.0193,0.0191,0.0189,0.0162,0.0161,0.0151,0.0148,0.0162,0.016,0.0158,0.0127,0.0121,0.0119,0.0104,0.0104,0.0103,0.0102,0.0101,0.008,0.008,0,0,0,0,0,0,0.0182,0.0175,0.0194,0.0192,0.018,0.0163,0.0162,0.0173,0.0148,0.0144,0.0158,0.0157,0.0124,0.012,0.0117,0.0128,0.0103,0.0101,0.0101,0.008,0.008,0.008,0,0,0,0,0,0,0.0182,0.0185,0.0195,0.0182,0.0182,0.0164,0.0176,0.0173,0.017,0.0145,0.0141,0.016,0.0123,0.0119,0.0113,0.0126,0.0101,0.01,0.008,0.008,0.008,0.0142,0,0,0,0,0,0,0.0181,0.0185,0.0193,0.0184,0.0183,0.0199,0.0177,0.0173,0.0169,0.0167,0.0145,0.0141,0.0123,0.0115,0.0112,0.0124,0.0099,0.008,0.008,0.008,0.014,0.0144,0.0148,0,0,0,0,0,0.0181,0.0199,0.0194,0.0195,0.0196,0.02,0.0198,0.0182,0.017,0.0177,0.0157,0.0142,0.0114,0.0114,0.011,0.0123,0.008,0.008,0.008,0.0138,0.0144,0.0148,0,0,0,0,0,0,0.0189,0.0198,0.0192,0.0211,0.0209,0.0196,0.02,0.0188,0.0177,0.0173,0.0147,0.0142,0.0139,0.0121,0.0122,0.0115,0.0093,0.0093,0.0138,0.0143,0.0147,0.0164,0.0098,0,0,0,0,0,0.0196,0.0214,0.0212,0.0226,0.0229,0.0214,0.0212,0.0203,0.0193,0.0187,0.0171,0.015,0.0137,0.0133,0.0116,0.0119,0.0088,0.0121,0.0125,0.0129,0.0139,0.0099,0.01,0.0082,0.0082,0.0082,0,0,0.0201,0.0209,0.0217,0.0229,0.0225,0.0241,0.0213,0.0217,0.0229,0.0185,0.0194,0.0165,0.0139,0.0139,0.0136,0.0127,0.0117,0.013,0.0133,0.0141,0.0099,0.0101,0.0103,0.0082,0.0082,0.0082,0,0,0.0228,0.0232,0.0257,0.0262,0.0264,0.0258,0.0263,0.0255,0.0252,0.0254,0.0223,0.0203,0.0187,0.0171,0.0161,0.0178,0.0138,0.017,0.0211,0.0172,0.0173,0.0174,0.0135,0.0132,0.0175,0.0176,0.0176,0,0.0231,0.0269,0.0262,0.0286,0.0299,0.0273,0.0302,0.0296,0.0284,0.0287,0.0265,0.0229,0.0205,0.0204,0.0207,0.019,0.0158,0.0197,0.0178,0.0179,0.0178,0.0138,0.0134,0.0179,0.0178,0.0178,0.0178,0,0.0279,0.0306,0.0322,0.035,0.0358,0.038,0.0375,0.0382,0.0369,0.0353,0.0344,0.03,0.0281,0.0265,0.0244,0.0234,0.0208,0.0186,0.0169,0.0184,0.014,0.0135,0.0183,0.0182,0.0181,0.018,0,0,0.0301,0.0348,0.0355,0.0386,0.0398,0.0416,0.044,0.0456,0.0476,0.0438,0.0455,0.041,0.0371,0.0357,0.0317,0.0281,0.0248,0.024,0.0236,0.0208,0.0159,0.0132,0.0122,0.022,0.022,0.0219,0.0128,0,0.0344,0.0415,0.042,0.0482,0.0522,0.0514,0.0544,0.0547,0.0536,0.0542,0.0483,0.0473,0.0411,0.0401,0.0356,0.028,0.0237,0.0274,0.0142,0.0139,0.0118,0.0117,0.0146,0.0066,0.0122,0.0121,0.012,0,0.0394,0.044,0.0514,0.0573,0.0589,0.0613,0.0661,0.0684,0.0675,0.0663,0.0628,0.0574,0.0522,0.0464,0.0335,0.0361,0.0268,0.0197,0.0192,0.0144,0.0102,0.0059,0.0054,-0.0115,0.0112,0.0112,0.0113,0,0.0438,0.0507,0.0574,0.0594,0.0649,0.0679,0.0708,0.0719,0.0761,0.0737,0.0751,0.0659,0.0632,0.0501,0.035,0.0341,0.0201,0.0169,0.0053,0.005,0.0038,0.0035,-0.0137,0.0072,0.0072,0.0073,0.0073,0,0.0493,0.0546,0.0601,0.0641,0.0727,0.0737,0.0818,0.0829,0.0857,0.0916,0.0817,0.0835,0.0639,0.0536,0.038,0.0205,0.0219,0.0062,0.0026,0.006,0.006,-0.0117,-0.0246,0.0069,0.007,0.0071,0.0071,0,0.0534,0.0569,0.0654,0.0724,0.0754,0.0816,0.091,0.0968,0.0976,0.1052,0.105,0.0967,0.083,0.0623,0.0411,0.026,-0.0031,0.0014,0.0065,0.0037,-0.0228,-0.0354,-0.0554,-0.0687,-0.0128,-0.0129,-0.013,0,0.0561,0.0611,0.0719,0.0781,0.0816,0.0912,0.0986,0.1029,0.1102,0.1146,0.1192,0.1077,0.1038,0.0705,0.0398,0.0109,-0.0076,-0.0064,-0.008,-0.0241,-0.0408,-0.0455,-0.0557,-0.0076,-0.0076,-0.0076,-0.0077,0,0.0615,0.0652,0.0726,0.086,0.0948,0.1065,0.1172,0.1255,0.1322,0.1385,0.1448,0.1418,0.1098,0.0827,0.0408,0.019,-0.0203,-0.0081,-0.0261,-0.0396,-0.0446,-0.0589,-0.0023,-0.008,-0.008,-0.008,-0.0079,-0.0079,0.0651,0.0716,0.0819,0.0947,0.1059,0.1211,0.1329,0.145,0.1595,0.174,0.1674,0.1711,0.128,0.0719,0.0354,-0.0229,-0.0256,-0.0365,-0.0509,-0.0541,-0.0664,-0.0108,-0.0198,-0.0198,-0.0198,-0.0199,-0.0199,0,0.07,0.0782,0.0901,0.1061,0.1197,0.1251,0.1452,0.159,0.1786,0.1946,0.2021,0.1877,0.1318,0.0732,-0.0073,-0.0524,-0.0704,-0.0779,-0.0843,-0.0935,-0.0438,-0.0428,-0.0555,-0.0555,-0.0555,-0.0555,-0.0555,-0.0554,0.0728,0.0849,0.092,0.1151,0.1269,0.1479,0.1611,0.182,0.1999,0.2247,0.2336,0.2338,0.1939,0.0456,-0.059,-0.0904,-0.1247,-0.1297,-0.1511,-0.1161,-0.1132,-0.1104,-0.1122,-0.1393,-0.1394,-0.1902,-0.1908,-0.1912]}],[{"header":{"parameterUnit":"m.s-1","parameterCategory":2,"la1":30.2991,"la2":30.254,"lo1":-89.0895,"lo2":-89.0444,"dy":0.0017,"dx":0.0017,"nx":28,"ny":28,"refTime":"2024-04-03T03:00:00:Z","depth":"2","parameterNumber":2,"parameterNumberName":"U-component_of_CURRENTS"},"data":[0,0,0,0,0,0,0,0,0,0,0,0,0,0,0,0,0,0,0,0,0,0,0,0,0,0,0,0,0,0,0,0,0,0,0,0,0,0,0,0,0,0,0,0,0,0,0,0,0,0,0,0,0,0,0,0,0,0,0.2914,0.2914,0,0.2916,0.2916,0.2915,0.2894,0.2893,0.2893,0.2892,0.2855,0.2854,0.2853,0,0,0,0,0,0,0,0,0,0,0,0,0,0.2912,0.2911,0.2914,0.2914,0.2915,0.2916,0.2916,0.2915,0.2894,0.2893,0.2893,0.2892,0.2855,0.2854,0.2853,0,0,0,0,0,0,0,0,0,0,0,0,0,0.2911,0.2911,0.2914,0.2906,0.2905,0.2916,0.2916,0.2915,0.2894,0.2893,0.2893,0.2892,0.2855,0.2854,0.2853,0.2859,0,0,0.285,0.285,0,0,0,0,0,0,0,0,0.2911,0.291,0.2907,0.2906,0.2906,0.2906,0.2901,0.2895,0.2894,0.2896,0.2892,0.2892,0.287,0.2868,0.2867,0.2857,0.2856,0.285,0.285,0.2849,0.2849,0,0,0,0,0,0,0,0.2911,0.291,0.2913,0.2907,0.2906,0.2908,0.2907,0.29,0.2884,0.2895,0.2894,0.2898,0.2869,0.2868,0.2866,0.2855,0.285,0.2849,0.2849,0.2848,0.2866,0.2867,0,0,0,0,0,0,0.2915,0.291,0.2913,0.2913,0.2909,0.2909,0.2908,0.2904,0.2884,0.2882,0.2899,0.2897,0.287,0.2867,0.2864,0.2883,0.2849,0.2848,0.2848,0.2865,0.2867,0.2868,0,0,0,0,0,0,0.2915,0.2915,0.2912,0.2914,0.2914,0.291,0.2906,0.2905,0.2909,0.2888,0.2884,0.2905,0.2869,0.2866,0.2866,0.2881,0.2848,0.2847,0.2864,0.2866,0.2867,0.2912,0,0,0,0,0,0,0.2914,0.2914,0.2917,0.2914,0.2914,0.2924,0.2907,0.2905,0.2913,0.2911,0.2892,0.2888,0.2868,0.2868,0.2865,0.2879,0.2846,0.2863,0.2865,0.2867,0.291,0.2915,0.292,0,0,0,0,0,0.2914,0.2918,0.2917,0.2917,0.2916,0.2925,0.2925,0.2919,0.2914,0.2919,0.2909,0.2888,0.2878,0.2868,0.2864,0.2878,0.2862,0.2864,0.2866,0.2907,0.2914,0.292,0,0,0,0,0,0,0.2917,0.2917,0.2915,0.2918,0.2925,0.2922,0.2929,0.2927,0.2924,0.2922,0.29,0.2895,0.2905,0.2887,0.2876,0.2891,0.2868,0.287,0.29,0.2906,0.2912,0.2945,0.2845,0,0,0,0,0,0.2921,0.2922,0.2926,0.293,0.2936,0.2936,0.294,0.2938,0.2935,0.2933,0.2918,0.2909,0.2912,0.2905,0.2902,0.2906,0.2915,0.2915,0.292,0.2924,0.2951,0.2968,0.2978,0.2875,0.2875,0.2875,0,0,0.2923,0.2924,0.2925,0.2931,0.2935,0.2949,0.2936,0.2948,0.2963,0.293,0.2939,0.2929,0.292,0.2928,0.293,0.2913,0.296,0.2927,0.2931,0.2956,0.2972,0.2982,0.2991,0.2877,0.2877,0.2877,0,0,0.2931,0.2932,0.2938,0.2949,0.2961,0.2964,0.2971,0.2973,0.2978,0.2985,0.2975,0.2982,0.2964,0.2972,0.2973,0.3009,0.2993,0.2997,0.3043,0.3058,0.3067,0.3075,0.3105,0.3115,0.2992,0.2992,0.2992,0,0.2938,0.294,0.2943,0.2958,0.2969,0.2974,0.2989,0.3004,0.3004,0.3012,0.2992,0.3001,0.2993,0.3024,0.3041,0.3023,0.303,0.3015,0.3066,0.3074,0.3081,0.311,0.312,0.2994,0.2994,0.2994,0.2993,0,0.295,0.2958,0.2967,0.2984,0.2999,0.3012,0.3034,0.3047,0.3047,0.3053,0.3077,0.3072,0.3076,0.3075,0.3071,0.3121,0.3109,0.3075,0.305,0.3094,0.3122,0.3132,0.2998,0.2997,0.2996,0.2995,0,0,0.2948,0.2969,0.2973,0.298,0.3011,0.302,0.306,0.3087,0.3116,0.3114,0.3146,0.3164,0.3159,0.3164,0.3158,0.3181,0.3243,0.3156,0.3155,0.3188,0.329,0.3287,0.3298,0.3207,0.3209,0.321,0.329,0,0.2956,0.2975,0.2989,0.3013,0.3025,0.3049,0.3088,0.3118,0.3139,0.3173,0.3188,0.3217,0.3193,0.3205,0.3224,0.3247,0.3271,0.3226,0.3242,0.3243,0.3236,0.331,0.299,0.3035,0.33,0.3301,0.3303,0,0.2962,0.2973,0.2993,0.3022,0.3032,0.3051,0.3103,0.3138,0.3201,0.3222,0.3253,0.3269,0.3329,0.3291,0.3351,0.3318,0.3319,0.3326,0.3328,0.3323,0.326,0.3032,0.3043,0.3319,0.3318,0.3317,0.3316,0,0.2945,0.2974,0.2984,0.2995,0.3037,0.3053,0.3078,0.3143,0.3194,0.3263,0.3309,0.3349,0.3397,0.3401,0.3429,0.3391,0.349,0.3426,0.3425,0.3424,0.3158,0.3132,0.3467,0.3467,0.3467,0.3467,0.3466,0,0.2942,0.2949,0.2973,0.2978,0.3008,0.3039,0.3093,0.3132,0.3217,0.3281,0.3332,0.3401,0.3429,0.3483,0.3469,0.3502,0.3517,0.3471,0.3455,0.3167,0.3142,0.3386,0.3375,0.347,0.3469,0.3468,0.3468,0,0.2922,0.2937,0.2949,0.2984,0.2999,0.3019,0.3102,0.3136,0.3233,0.3324,0.3358,0.3471,0.3549,0.3574,0.3613,0.3574,0.3588,0.3584,0.3266,0.3213,0.3498,0.3489,0.3596,0.3597,0.3598,0.3598,0.3599,0,0.2909,0.2914,0.2948,0.2953,0.2965,0.3009,0.3037,0.3131,0.3183,0.336,0.3395,0.3531,0.3602,0.3687,0.3601,0.3585,0.3645,0.3322,0.3204,0.3544,0.3517,0.3506,0.3497,0.2857,0.2852,0.2847,0.2843,0,0.2885,0.2897,0.2902,0.2924,0.2939,0.2975,0.3025,0.3082,0.3198,0.3296,0.3425,0.351,0.3578,0.3431,0.3436,0.3374,0.3299,0.3235,0.365,0.2901,0.286,0.283,0.2841,0.2802,0.2806,0.2809,0.2812,0.2813,0.2859,0.2857,0.2864,0.2878,0.2893,0.2908,0.2919,0.2959,0.3044,0.3095,0.3291,0.3273,0.3285,0.3124,0.3017,0.2906,0.3139,0.2981,0.2988,0.3001,0.2929,0.2894,0.2829,0.2833,0.2836,0.284,0.2842,0,0.2794,0.281,0.2815,0.2811,0.2762,0.2832,0.2876,0.2801,0.2808,0.2874,0.2927,0.2686,0.2622,0.2627,0.2382,0.2403,0.229,0.2322,0.2129,0.2175,0.2214,0.2093,0.1776,0.1772,0.1769,0.1766,0,0,0.2759,0.2722,0.272,0.2651,0.2664,0.2556,0.256,0.2464,0.2438,0.2337,0.2295,0.2458,0.2569,0.2129,0.2078,0.1888,0.2006,0.1807,0.2668,0.2487,0.2521,0.2609,0.248,0,0,0,0,0]},{"header":{"parameterUnit":"m.s-1","parameterCategory":2,"la1":30.2991,"la2":30.254,"lo1":-89.0895,"lo2":-89.0444,"dy":0.0017,"dx":0.0017,"nx":28,"ny":28,"refTime":"2024-04-03T03:00:00:Z","depth":"2","parameterNumber":3,"parameterNumberName":"V-component_of_CURRENTS"},"data":[0,0,0,0,0,0,0,0,0,0,0,0,0,0,0,0,0,0,0,0,0,0,0,0,0,0,0,0,0,0,0,0,0,0,0,0,0,0,0,0,0,0,0,0,0,0,0,0,0,0,0,0,0,0,0,0,0,0,0.0248,0.0248,0,0.0219,0.0219,0.0218,0.0192,0.0192,0.0191,0.0191,0.0152,0.0151,0.0151,0,0,0,0,0,0,0,0,0,0,0,0,0,0.022,0.0221,0.0248,0.0248,0.0247,0.0219,0.0219,0.0218,0.0192,0.0192,0.0191,0.0191,0.0152,0.0152,0.0151,0,0,0,0,0,0,0,0,0,0,0,0,0,0.0216,0.0222,0.0248,0.0231,0.0229,0.0219,0.0219,0.0218,0.0192,0.0192,0.0191,0.0191,0.0153,0.0152,0.015,0.0152,0,0,0.0147,0.0146,0,0,0,0,0,0,0,0,0.0216,0.0217,0.0234,0.0232,0.023,0.0209,0.0194,0.0195,0.0192,0.0206,0.0191,0.0191,0.0171,0.0168,0.0163,0.015,0.0148,0.0147,0.0146,0.0146,0.0145,0,0,0,0,0,0,0,0.0216,0.0217,0.0236,0.0234,0.0231,0.0204,0.0204,0.0194,0.019,0.0205,0.0203,0.02,0.017,0.0164,0.0162,0.0147,0.0147,0.0146,0.0145,0.0145,0.0124,0.0124,0,0,0,0,0,0,0.0225,0.0218,0.0237,0.0235,0.0222,0.0206,0.0205,0.0216,0.0191,0.0187,0.0201,0.0199,0.0167,0.0163,0.0161,0.0171,0.0146,0.0144,0.0144,0.0124,0.0124,0.0124,0,0,0,0,0,0,0.0225,0.0227,0.0238,0.0225,0.0225,0.0207,0.0219,0.0216,0.0213,0.0188,0.0184,0.0202,0.0166,0.0162,0.0156,0.0169,0.0144,0.0143,0.0124,0.0124,0.0124,0.0185,0,0,0,0,0,0,0.0224,0.0228,0.0235,0.0227,0.0226,0.0242,0.022,0.0215,0.0212,0.021,0.0188,0.0183,0.0166,0.0158,0.0155,0.0167,0.0142,0.0124,0.0124,0.0124,0.0183,0.0187,0.0191,0,0,0,0,0,0.0223,0.0242,0.0236,0.0238,0.0239,0.0243,0.024,0.0225,0.0213,0.0219,0.02,0.0184,0.0157,0.0157,0.0154,0.0165,0.0123,0.0124,0.0124,0.0181,0.0186,0.0191,0,0,0,0,0,0,0.0232,0.0241,0.0234,0.0254,0.0251,0.0239,0.0242,0.023,0.022,0.0215,0.019,0.0185,0.0182,0.0164,0.0165,0.0158,0.0136,0.0136,0.0181,0.0185,0.019,0.0206,0.0141,0,0,0,0,0,0.0238,0.0256,0.0254,0.0268,0.0271,0.0256,0.0254,0.0245,0.0235,0.023,0.0213,0.0193,0.018,0.0176,0.0159,0.0162,0.0131,0.0164,0.0168,0.0172,0.0182,0.0142,0.0143,0.0125,0.0125,0.0125,0,0,0.0244,0.0251,0.0259,0.0271,0.0267,0.0283,0.0255,0.0259,0.0271,0.0227,0.0236,0.0207,0.0182,0.0181,0.0178,0.017,0.016,0.0172,0.0176,0.0184,0.0142,0.0144,0.0145,0.0126,0.0126,0.0126,0,0,0.0269,0.0274,0.0298,0.0303,0.0305,0.03,0.0305,0.0296,0.0293,0.0295,0.0264,0.0245,0.0229,0.0213,0.0203,0.022,0.0181,0.0212,0.0252,0.0213,0.0215,0.0215,0.0176,0.0173,0.0217,0.0217,0.0217,0,0.0273,0.031,0.0303,0.0328,0.034,0.0314,0.0343,0.0337,0.0325,0.0328,0.0306,0.027,0.0246,0.0245,0.0248,0.0232,0.02,0.0238,0.022,0.022,0.022,0.0179,0.0175,0.022,0.022,0.022,0.0219,0,0.032,0.0347,0.0363,0.0391,0.0399,0.042,0.0415,0.0422,0.0409,0.0393,0.0383,0.034,0.0321,0.0305,0.0284,0.0274,0.0249,0.0228,0.0211,0.0225,0.0181,0.0176,0.0225,0.0224,0.0223,0.0222,0,0,0.0342,0.0389,0.0395,0.0426,0.0438,0.0456,0.0479,0.0495,0.0515,0.0477,0.0493,0.0448,0.041,0.0396,0.0357,0.0321,0.0287,0.028,0.0276,0.0248,0.0198,0.017,0.0161,0.026,0.0259,0.0259,0.0167,0,0.0384,0.0454,0.046,0.0521,0.0561,0.0552,0.0582,0.0585,0.0574,0.0579,0.0521,0.0511,0.045,0.0439,0.0394,0.0319,0.0276,0.0314,0.0182,0.0179,0.0158,0.0155,0.0191,0.0111,0.0162,0.0161,0.016,0,0.0433,0.0479,0.0552,0.0611,0.0627,0.065,0.0697,0.0721,0.0711,0.0699,0.0664,0.061,0.0558,0.0501,0.0373,0.0399,0.0307,0.0236,0.0231,0.0182,0.0141,0.0104,0.0099,0.015,0.0151,0.0152,0.0152,0,0.0476,0.0545,0.0611,0.0631,0.0686,0.0716,0.0744,0.0755,0.0796,0.0772,0.0785,0.0694,0.0667,0.0536,0.0387,0.0378,0.0238,0.0207,0.0092,0.0089,0.0083,0.008,0.0111,0.0111,0.0111,0.0112,0.0112,0,0.0531,0.0583,0.0638,0.0677,0.0763,0.0772,0.0853,0.0863,0.089,0.0948,0.085,0.0867,0.0674,0.057,0.0416,0.0241,0.0256,0.01,0.0064,0.0104,0.0104,0.011,0.0112,0.0108,0.0109,0.011,0.011,0,0.0571,0.0606,0.069,0.0759,0.0789,0.0851,0.0944,0.1001,0.1008,0.1082,0.108,0.0997,0.086,0.0655,0.0445,0.0295,0.0119,0.0051,0.0108,0.0081,-0.0015,-0.0009,-0.0088,-0.009,-0.0091,-0.0092,-0.0093,0,0.0598,0.0647,0.0754,0.0815,0.085,0.0945,0.1019,0.1061,0.1133,0.1175,0.1221,0.1105,0.1062,0.0731,0.0432,0.0146,0.0107,-0.0021,-0.0036,-0.0008,-0.0035,-0.0027,-0.002,-0.0024,-0.0024,-0.0025,-0.0025,0,0.065,0.0687,0.0761,0.0894,0.0981,0.1097,0.1203,0.1285,0.135,0.1408,0.1468,0.1433,0.112,0.0837,0.0422,0.0227,0.0023,-0.0037,-0.0023,0.0024,0.0045,0.0022,0.0028,-0.0028,-0.0027,-0.0027,-0.0027,-0.0027,0.0686,0.0751,0.0853,0.098,0.1091,0.1242,0.1359,0.1466,0.1603,0.1707,0.1654,0.1596,0.1262,0.0737,0.0388,0.0001,0.0022,-0.0111,-0.0107,-0.0104,-0.0077,-0.0058,-0.0146,-0.0147,-0.0147,-0.0147,-0.0148,0,0.0739,0.0816,0.0935,0.1093,0.1231,0.1281,0.148,0.1599,0.1772,0.1826,0.1864,0.1545,0.1202,0.0799,0.0245,-0.0075,-0.0096,-0.0194,-0.0138,-0.0132,-0.0128,-0.0101,-0.0178,-0.0179,-0.0181,-0.0182,0,0,0.0768,0.089,0.096,0.1189,0.1303,0.1511,0.1641,0.1802,0.1895,0.1971,0.1916,0.1796,0.1319,0.0908,0.0469,0.0149,0.0082,0.0077,0.014,0.0268,0.0276,-0.004,0.0013,0,0,0,0,0]}],[{"header":{"parameterUnit":"m.s-1","parameterCategory":2,"la1":30.2991,"la2":30.254,"lo1":-89.0895,"lo2":-89.0444,"dy":0.0017,"dx":0.0017,"nx":28,"ny":28,"refTime":"2024-04-03T03:00:00:Z","depth":"4","parameterNumber":2,"parameterNumberName":"U-component_of_CURRENTS"},"data":[0,0,0,0,0,0,0,0,0,0,0,0,0,0,0,0,0,0,0,0,0,0,0,0,0,0,0,0,0,0,0,0,0,0,0,0,0,0,0,0,0,0,0,0,0,0,0,0,0,0,0,0,0,0,0,0,0,0,0.1646,0.1646,0,0.1702,0.1703,0.1703,0.1751,0.1751,0.1752,0.1753,0.1817,0.1819,0.182,0,0,0,0,0,0,0,0,0,0,0,0,0,0.1586,0.1587,0.1645,0.1646,0.1647,0.1702,0.1703,0.1703,0.1751,0.1751,0.1752,0.1753,0.1817,0.1818,0.182,0,0,0,0,0,0,0,0,0,0,0,0,0,0.1622,0.1587,0.1645,0.1679,0.1683,0.1702,0.1703,0.1703,0.175,0.1751,0.1752,0.1753,0.1817,0.1818,0.182,0.1809,0,0,0.1825,0.1826,0,0,0,0,0,0,0,0,0.162,0.1624,0.1673,0.1677,0.1681,0.1722,0.1706,0.174,0.175,0.1723,0.1753,0.1754,0.1787,0.1791,0.1796,0.1812,0.1815,0.1825,0.1826,0.1827,0.1827,0,0,0,0,0,0,0,0.1617,0.1622,0.1666,0.1674,0.1679,0.1694,0.17,0.1712,0.1747,0.1725,0.1729,0.1738,0.1789,0.1795,0.1798,0.1816,0.1825,0.1826,0.1827,0.1828,0.1937,0.1939,0,0,0,0,0,0,0.1613,0.1619,0.1664,0.1668,0.1655,0.1694,0.1701,0.1706,0.1747,0.1754,0.1737,0.174,0.1791,0.1796,0.1801,0.1891,0.1827,0.1828,0.1829,0.1935,0.1938,0.194,0,0,0,0,0,0,0.1611,0.1616,0.1662,0.1647,0.1654,0.1694,0.17,0.1707,0.1752,0.1756,0.1764,0.178,0.1792,0.1799,0.1849,0.189,0.1829,0.183,0.1933,0.1936,0.1939,0.2006,0,0,0,0,0,0,0.1609,0.1615,0.1637,0.1646,0.1655,0.1696,0.1699,0.1707,0.1754,0.176,0.1794,0.1799,0.1794,0.1847,0.1851,0.1891,0.1832,0.1931,0.1935,0.1938,0.2002,0.2011,0.2019,0,0,0,0,0,0.1607,0.1624,0.1638,0.1644,0.1677,0.1697,0.1704,0.1734,0.1756,0.1778,0.1809,0.18,0.1873,0.185,0.1854,0.1895,0.1929,0.1933,0.1938,0.1998,0.2009,0.2019,0,0,0,0,0,0,0.1611,0.1631,0.1646,0.167,0.1695,0.1707,0.1738,0.1756,0.1798,0.1818,0.1822,0.1829,0.1891,0.1884,0.1859,0.1939,0.1901,0.1906,0.1945,0.1956,0.1964,0.1985,0.1833,0,0,0,0,0,0.1621,0.1643,0.166,0.1686,0.1702,0.1729,0.175,0.177,0.1798,0.182,0.1844,0.1874,0.1904,0.1924,0.1946,0.1985,0.1986,0.2016,0.2025,0.2033,0.2054,0.2079,0.2091,0.1954,0.1954,0.1954,0,0,0.1632,0.1647,0.1662,0.1691,0.1715,0.1744,0.1745,0.1788,0.1827,0.1819,0.1892,0.191,0.1924,0.1974,0.2,0.1977,0.2073,0.2038,0.2044,0.2062,0.2085,0.2098,0.211,0.1957,0.1957,0.1956,0,0,0.1651,0.1679,0.1701,0.1725,0.1768,0.1783,0.1804,0.1839,0.1876,0.193,0.1945,0.1993,0.2029,0.2053,0.2066,0.2138,0.2122,0.2146,0.2204,0.2228,0.224,0.2249,0.2269,0.228,0.2146,0.2146,0.2146,0,0.167,0.1692,0.1713,0.1741,0.177,0.1805,0.1838,0.1877,0.1929,0.1962,0.1966,0.205,0.2068,0.2131,0.2166,0.216,0.2167,0.2159,0.2239,0.2249,0.2258,0.2275,0.2287,0.2149,0.2149,0.2149,0.2148,0,0.1689,0.1727,0.1746,0.1792,0.1826,0.1863,0.191,0.1961,0.2006,0.2037,0.2121,0.2147,0.2195,0.2211,0.2217,0.2296,0.228,0.2248,0.2209,0.2276,0.229,0.2301,0.2155,0.2154,0.2152,0.2151,0,0,0.1679,0.1746,0.1758,0.1789,0.1858,0.1881,0.196,0.2023,0.2083,0.2139,0.2209,0.2278,0.23,0.2319,0.2333,0.2366,0.2444,0.2349,0.2348,0.2364,0.2502,0.2338,0.2333,0.2424,0.2426,0.2428,0.2486,0,0.1693,0.1745,0.1781,0.1848,0.1877,0.1939,0.2007,0.2077,0.2141,0.2218,0.2267,0.2343,0.2338,0.238,0.2413,0.2446,0.2476,0.2432,0.244,0.2441,0.2282,0.2341,0.2435,0.2494,0.2496,0.2498,0.2499,0,0.1694,0.173,0.1792,0.1873,0.1895,0.195,0.2058,0.2124,0.2236,0.2291,0.2367,0.241,0.2503,0.2475,0.2556,0.2529,0.2535,0.2542,0.2542,0.2375,0.2295,0.2414,0.2518,0.2517,0.2515,0.2514,0.2513,0,0.1651,0.1735,0.1785,0.1814,0.1914,0.197,0.2036,0.2151,0.2226,0.2355,0.242,0.2504,0.2575,0.2596,0.2628,0.2606,0.2692,0.2646,0.2497,0.2486,0.2586,0.2575,0.2692,0.2692,0.2692,0.2692,0.2692,0,0.1627,0.1671,0.1778,0.1803,0.1885,0.1963,0.2072,0.2149,0.228,0.236,0.2464,0.2529,0.2615,0.2666,0.2661,0.2614,0.2714,0.2526,0.2493,0.2613,0.2604,0.2593,0.2581,0.2694,0.2694,0.2693,0.2693,0,0.1567,0.1636,0.1701,0.1819,0.1867,0.1929,0.2092,0.2151,0.2298,0.2406,0.2458,0.2591,0.265,0.2698,0.2746,0.2649,0.2623,0.2577,0.2725,0.2696,0.2395,0.2386,0.2413,0.2408,0.2404,0.24,0.2397,0,0.1534,0.1563,0.1702,0.1745,0.1808,0.1922,0.1988,0.2145,0.2209,0.2411,0.2435,0.257,0.2629,0.2563,0.2624,0.2593,0.2553,0.2519,0.2441,0.2403,0.2369,0.2367,0.2364,0.239,0.2389,0.2387,0.2386,0,0.1469,0.1538,0.1589,0.1681,0.1759,0.184,0.195,0.1995,0.216,0.2317,0.2357,0.2382,0.2443,0.2456,0.2458,0.2426,0.2527,0.2471,0.2479,0.2406,0.2375,0.2345,0.2347,0.2371,0.2373,0.2374,0.2375,0,0.1425,0.1445,0.1522,0.1588,0.1678,0.171,0.1797,0.1861,0.1952,0.2163,0.217,0.2293,0.2422,0.2371,0.2368,0.2332,0.2283,0.218,0.2202,0.222,0.2126,0.2056,0.1938,0,0,0,0,0,0.1363,0.1362,0.1415,0.1466,0.1545,0.1596,0.1735,0.1822,0.1995,0.1961,0.2063,0.2101,0.211,0.2176,0.2096,0.2277,0.2291,0.2172,0.2185,0.2285,0.2303,0.2207,0,0,0,0,0,0,0.1315,0.1355,0.1367,0.1344,0.1353,0.1419,0.1501,0.162,0.1624,0.1806,0.1825,0.1952,0.1998,0.2121,0.2046,0.2064,0.2022,0.2254,0.2248,0.2275,0.2291,0.2306,0.2214,0,0,0,0,0]},{"header":{"parameterUnit":"m.s-1","parameterCategory":2,"la1":30.2991,"la2":30.254,"lo1":-89.0895,"lo2":-89.0444,"dy":0.0017,"dx":0.0017,"nx":28,"ny":28,"refTime":"2024-04-03T03:00:00:Z","depth":"4","parameterNumber":3,"parameterNumberName":"V-component_of_CURRENTS"},"data":[0,0,0,0,0,0,0,0,0,0,0,0,0,0,0,0,0,0,0,0,0,0,0,0,0,0,0,0,0,0,0,0,0,0,0,0,0,0,0,0,0,0,0,0,0,0,0,0,0,0,0,0,0,0,0,0,0,0,0.0361,0.0361,0,0.0346,0.0345,0.0345,0.0338,0.0338,0.0338,0.0338,0.0317,0.0317,0.0316,0,0,0,0,0,0,0,0,0,0,0,0,0,0.0341,0.0342,0.0361,0.0361,0.0361,0.0346,0.0345,0.0345,0.0338,0.0338,0.0338,0.0338,0.0318,0.0317,0.0316,0,0,0,0,0,0,0,0,0,0,0,0,0,0.0341,0.0342,0.0361,0.0355,0.0355,0.0346,0.0345,0.0345,0.0338,0.0338,0.0338,0.0338,0.0318,0.0317,0.0316,0.0311,0,0,0.0314,0.0313,0,0,0,0,0,0,0,0,0.0341,0.0341,0.0357,0.0356,0.0355,0.0344,0.0331,0.0333,0.0338,0.0345,0.0338,0.0338,0.0326,0.0324,0.0322,0.031,0.0309,0.0314,0.0313,0.0313,0.0312,0,0,0,0,0,0,0,0.0341,0.0342,0.0355,0.0356,0.0355,0.0338,0.0339,0.0331,0.0335,0.0344,0.0344,0.0342,0.0325,0.0322,0.0321,0.0309,0.0314,0.0313,0.0312,0.0312,0.029,0.029,0,0,0,0,0,0,0.0345,0.0342,0.0356,0.0355,0.0348,0.0339,0.0339,0.0348,0.0336,0.0334,0.0342,0.0341,0.0324,0.0322,0.032,0.0327,0.0313,0.0312,0.0311,0.029,0.029,0.029,0,0,0,0,0,0,0.0345,0.0347,0.0356,0.0347,0.0347,0.034,0.0349,0.0347,0.035,0.0334,0.0332,0.0347,0.0324,0.0321,0.0319,0.0325,0.0312,0.0311,0.029,0.029,0.029,0.0331,0,0,0,0,0,0,0.0344,0.0347,0.0356,0.0348,0.0348,0.036,0.0349,0.0347,0.0349,0.0348,0.0337,0.0335,0.0324,0.0321,0.0319,0.0324,0.031,0.029,0.029,0.029,0.033,0.0332,0.0334,0,0,0,0,0,0.0344,0.0358,0.0357,0.0358,0.036,0.0361,0.036,0.0353,0.0349,0.0355,0.0346,0.0336,0.0318,0.032,0.0318,0.0323,0.029,0.029,0.029,0.0328,0.0332,0.0334,0,0,0,0,0,0,0.0352,0.0359,0.0357,0.0372,0.037,0.036,0.0365,0.0359,0.0356,0.0356,0.0339,0.0337,0.0335,0.0322,0.0325,0.0314,0.0301,0.03,0.0331,0.0333,0.0336,0.0349,0.0309,0,0,0,0,0,0.0359,0.0373,0.037,0.0382,0.0384,0.0375,0.0375,0.0371,0.0365,0.0364,0.0355,0.0342,0.0331,0.0328,0.0316,0.0315,0.029,0.0313,0.0316,0.0318,0.0326,0.0289,0.0289,0.0289,0.0289,0.0289,0,0,0.0365,0.037,0.0377,0.0385,0.0383,0.0393,0.0376,0.0381,0.039,0.0362,0.0372,0.0352,0.0332,0.0329,0.0327,0.0321,0.0303,0.0318,0.032,0.0327,0.0289,0.0289,0.0289,0.0289,0.0289,0.0289,0,0,0.0383,0.039,0.0408,0.0411,0.0413,0.0409,0.0413,0.0408,0.0408,0.041,0.039,0.0375,0.0363,0.0348,0.0339,0.0347,0.0316,0.034,0.0366,0.033,0.033,0.0329,0.0292,0.0288,0.0342,0.0342,0.0342,0,0.0389,0.0415,0.0411,0.0427,0.0437,0.042,0.044,0.0436,0.043,0.0432,0.042,0.0391,0.0372,0.0365,0.0366,0.0353,0.0327,0.036,0.0334,0.0333,0.0332,0.0294,0.0289,0.0344,0.0344,0.0344,0.0343,0,0.042,0.0442,0.0453,0.0472,0.0478,0.0493,0.0489,0.0496,0.0489,0.0477,0.0468,0.0435,0.0419,0.0404,0.039,0.0374,0.0356,0.0341,0.033,0.0334,0.0294,0.0288,0.0347,0.0346,0.0345,0.0345,0,0,0.0436,0.047,0.0476,0.0499,0.0507,0.0519,0.0535,0.0544,0.0558,0.0531,0.0541,0.0503,0.0477,0.0464,0.0435,0.0401,0.0365,0.0373,0.037,0.0343,0.0283,0.0263,0.0255,0.0346,0.0345,0.0344,0.0257,0,0.0465,0.0513,0.0519,0.0564,0.059,0.0587,0.0607,0.0608,0.0599,0.0601,0.0555,0.0548,0.0503,0.0497,0.0455,0.0393,0.0353,0.039,0.0278,0.0275,0.0262,0.0248,0.0342,0.0252,0.0251,0.025,0.0249,0,0.0496,0.0529,0.0582,0.0627,0.0638,0.0658,0.0691,0.0708,0.0697,0.0688,0.0658,0.0619,0.0573,0.0534,0.0421,0.0447,0.0372,0.0313,0.0308,0.0274,0.0245,0.0246,0.0238,0.0239,0.024,0.024,0.0241,0,0.0522,0.0574,0.0624,0.0639,0.068,0.0706,0.073,0.0734,0.0765,0.0746,0.0752,0.0677,0.0655,0.0548,0.0425,0.0423,0.0293,0.0274,0.018,0.0178,0.0205,0.0206,0.0189,0.0189,0.0189,0.019,0.019,0,0.0555,0.0596,0.0645,0.0674,0.0741,0.075,0.0814,0.0821,0.084,0.0874,0.0804,0.0803,0.0658,0.0566,0.0443,0.0294,0.0302,0.0183,0.0154,0.0223,0.0227,0.02,0.0203,0.0186,0.0187,0.0188,0.0188,0,0.0576,0.0607,0.0672,0.073,0.0759,0.0809,0.089,0.0928,0.0935,0.0979,0.0979,0.09,0.0775,0.0615,0.0439,0.0328,0.0181,0.0125,0.0212,0.0189,0.0084,0.009,0.0012,0.0011,0.0009,0.0008,0.0007,0,0.059,0.0627,0.072,0.077,0.0803,0.0884,0.0942,0.098,0.1024,0.1037,0.1057,0.0955,0.0878,0.0616,0.0439,0.0189,0.0152,0.0069,0.0071,0.0087,0.0066,0.0073,0.008,0.0005,0.0005,0.0005,0.0005,0,0.0618,0.0655,0.0712,0.0821,0.0894,0.0986,0.1068,0.1108,0.1149,0.1151,0.1117,0.0979,0.0835,0.0621,0.0423,0.0246,0.0119,0.0056,0.0057,0.0058,0.0078,0.006,0.0068,0.0,0.0001,0.0001,0.0002,0,0.0641,0.0688,0.0771,0.0865,0.0966,0.106,0.1102,0.1151,0.1195,0.1193,0.1179,0.1018,0.0924,0.065,0.0473,0.0289,0.0238,0.0173,0.0167,0.0169,0.0235,0.0284,0.0245,0,0,0,0,0,0.0661,0.0721,0.081,0.0918,0.1018,0.1086,0.1176,0.1206,0.1239,0.1221,0.1203,0.1065,0.0796,0.0684,0.0496,0.044,0.0202,0.0212,0.0123,-0.0023,-0.0018,0.003,0,0,0,0,0,0,0.0676,0.0762,0.0811,0.0948,0.1031,0.1149,0.1213,0.1234,0.1225,0.122,0.1082,0.101,0.0752,0.0905,0.0492,0.0437,0.0351,0.0089,0.0084,-0.0026,-0.0021,-0.0017,0.0033,0,0,0,0,0]}]]